Theta_e
359 355 354 355 354 350 345 338 317 324 322 314 316 319 317 331 332 329 327 332 328 336 337 339 342 343 337 331 332 335 337 326 330 318 314 336 351 354 356 357 359 360 360 361 362 362 363 367 369 369 369 369 368 367 370 369 368 367 368 368 369 368 367 367 367 367 368 369 369 369 368 368 368 367 367 365 365 364 363 363 363 363 363 364 364 365 365 365 364 364 363 361 360 361 361 362 361
358 357 356 354 348 343 331 339 319 318 319 314 317 323 324 330 329 326 327 330 333 337 342 342 343 347 345 338 337 340 335 340 342 338 343 349 353 355 358 359 358 358 360 361 363 363 364 366 368 369 370 369 369 369 367 370 370 368 368 368 368 368 367 367 367 368 368 369 369 369 369 369 369 368 367 366 364 363 363 363 363 363 363 363 363 365 364 364 363 363 362 361 360 362 361 363 362
357 355 352 352 348 342 338 335 313 314 311 307 313 320 330 324 325 329 331 334 339 343 344 344 345 341 344 343 333 332 325 344 344 345 344 351 347 351 358 359 359 360 361 362 363 364 364 366 368 370 370 369 370 368 369 367 367 366 368 368 368 368 368 367 368 367 368 369 370 369 369 369 369 368 368 366 365 364 363 363 363 363 363 362 363 363 363 363 363 363 362 362 362 362 363 362 363
359 359 349 348 334 341 326 325 318 313 310 311 312 324 326 326 327 332 334 337 340 343 343 339 337 344 340 331 334 339 337 338 346 344 342 346 349 355 357 358 360 360 361 362 363 364 364 367 369 370 371 370 370 370 369 370 367 369 368 368 369 368 368 368 368 368 368 369 370 369 368 368 368 368 367 366 365 364 363 362 363 362 363 363 363 363 363 363 364 363 362 362 363 364 363 364 364
356 357 359 345 334 324 324 320 319 318 311 315 312 324 328 329 330 332 334 337 341 343 342 340 336 343 346 341 345 331 333 343 344 348 346 352 357 356 357 358 359 359 359 361 363 364 364 369 370 370 371 371 370 370 371 370 370 370 368 368 368 369 368 367 367 367 368 368 369 368 368 368 367 367 367 366 364 363 362 363 364 363 363 363 363 363 362 363 363 363 363 363 364 364 364 364 365
356 353 355 348 331 340 329 316 316 315 321 325 318 322 330 332 330 332 332 336 342 342 342 342 335 334 337 341 347 336 341 334 344 347 350 351 355 356 357 358 357 356 358 360 362 363 365 371 371 371 371 371 371 371 371 370 370 370 369 369 368 368 368 368 367 366 367 369 369 368 368 368 366 366 366 367 365 363 363 363 363 363 362 363 363 363 364 364 363 364 364 364 364 364 365 365 364
348 345 343 340 338 338 319 316 316 318 323 330 326 327 330 332 331 332 331 333 340 342 346 340 343 339 332 341 342 348 350 353 346 347 354 354 355 356 356 356 356 355 358 360 362 363 367 372 371 371 371 371 371 371 371 370 370 370 370 370 369 369 369 368 367 367 368 369 368 368 367 367 367 366 367 366 365 363 362 364 363 362 363 363 363 364 364 364 365 364 364 364 365 365 365 365 365
357 337 336 325 321 325 316 318 318 322 325 330 333 329 330 332 333 332 330 331 331 333 339 344 343 338 331 345 330 348 351 356 352 355 356 355 355 355 356 355 354 355 357 359 362 364 370 372 371 371 371 371 371 371 371 371 370 370 370 370 370 370 369 368 368 368 369 369 368 368 368 367 366 366 366 366 364 363 362 364 363 363 363 363 364 364 364 365 365 365 365 365 365 365 365 365 366
350 342 342 325 318 321 318 317 319 329 329 332 332 334 334 335 335 333 330 334 336 340 339 342 340 330 331 337 336 347 350 354 354 357 355 355 354 354 354 353 353 354 357 359 362 366 368 371 371 371 370 370 371 371 371 371 371 370 370 369 370 370 370 369 369 369 368 369 369 369 368 366 366 366 365 365 364 363 364 363 364 363 363 364 364 364 365 365 365 365 365 365 365 365 366 366 366
341 337 324 322 321 314 316 317 316 321 325 332 332 333 334 335 333 333 332 333 335 340 341 344 343 332 336 332 336 343 344 353 354 353 354 354 354 353 352 353 355 355 357 359 363 366 366 370 371 371 371 371 371 371 371 371 370 370 370 370 369 369 369 370 369 369 369 369 369 368 367 366 366 365 366 363 364 363 364 363 362 363 364 364 365 365 365 365 364 365 365 366 366 366 367 367 367
328 337 337 319 315 313 313 316 320 324 327 333 334 336 336 337 335 332 334 335 339 338 340 345 336 336 337 335 337 352 359 352 352 349 353 353 353 352 352 354 356 356 356 360 364 365 366 366 370 372 372 372 371 371 371 370 370 369 369 369 369 369 369 369 369 368 368 368 367 367 366 366 366 366 363 364 363 364 364 364 364 364 364 365 365 365 364 364 365 365 366 367 367 367 367 367 368
325 328 328 316 316 316 318 317 319 322 327 329 330 336 338 337 335 331 331 331 336 337 338 346 334 342 332 332 333 343 353 349 351 352 353 353 351 352 353 356 357 357 359 362 364 364 365 366 367 370 372 371 371 371 370 370 369 368 368 368 368 368 368 368 368 368 368 368 367 367 366 366 366 363 365 364 364 364 364 364 364 365 365 365 365 365 365 365 366 366 366 367 368 368 368 369 369
329 330 325 321 320 321 322 320 319 323 323 325 327 336 340 335 333 335 335 336 337 336 337 346 346 346 329 330 339 345 346 349 352 353 353 352 352 354 358 357 357 358 361 363 363 364 365 365 366 367 368 371 371 370 370 370 369 369 369 368 368 368 368 368 367 366 367 367 367 366 365 366 365 365 366 365 365 365 364 364 365 365 366 366 365 365 365 365 366 367 367 368 368 369 369 369 370
332 331 328 318 326 322 319 318 320 318 318 328 334 337 338 334 335 336 338 333 334 335 345 350 349 348 335 334 336 337 342 349 353 353 353 353 355 357 358 359 359 359 361 362 362 363 363 364 366 366 367 366 366 368 370 370 369 369 369 368 368 368 368 367 367 366 366 366 366 365 366 366 365 366 366 365 365 365 365 364 365 366 365 365 365 365 366 366 367 367 368 369 369 370 370 370 371
332 337 330 322 319 320 322 317 319 319 317 327 333 335 337 339 340 340 338 333 336 346 349 354 348 342 329 330 330 334 341 346 352 353 353 355 357 357 358 358 358 358 360 361 362 362 362 363 364 365 365 364 364 363 364 367 369 369 369 369 368 368 367 367 367 366 366 366 366 367 366 366 366 366 366 365 365 365 365 365 365 365 365 366 365 366 366 368 368 368 369 369 370 370 371 371 371
339 333 328 317 315 315 320 321 323 319 319 332 335 336 335 337 342 337 340 342 339 347 348 340 352 342 342 336 337 341 345 347 350 352 354 355 356 356 356 355 355 357 359 360 360 361 361 361 362 362 362 362 362 362 362 363 367 369 369 369 368 367 367 366 366 366 366 366 366 365 366 366 365 364 366 364 365 366 366 365 365 365 366 367 367 367 368 368 368 369 369 370 371 371 372 372 372
343 336 320 318 313 317 322 321 321 315 324 330 334 334 330 332 341 342 347 347 337 338 344 346 346 352 345 344 346 348 346 347 350 352 353 352 352 351 352 352 353 353 355 358 359 359 360 360 360 359 360 360 361 361 360 361 366 369 367 368 366 365 365 365 364 364 365 364 364 365 365 362 358 359 361 361 365 366 366 366 366 367 367 367 367 368 368 369 369 370 370 371 372 372 373 373 374
335 324 318 313 318 318 326 323 324 330 326 330 331 333 332 330 336 340 346 340 339 340 342 345 351 349 352 351 354 349 347 347 349 349 349 349 349 348 348 349 350 349 352 355 357 359 359 359 359 358 358 359 359 360 361 361 364 366 361 361 362 362 363 364 362 359 364 359 364 362 359 361 359 356 359 366 362 365 364 367 367 368 368 368 369 369 369 370 370 370 372 372 373 373 374 370 371
328 323 319 315 320 326 329 328 330 329 328 331 332 334 335 332 336 339 334 333 334 333 337 342 342 345 350 349 348 345 345 346 348 348 347 346 347 346 346 348 348 349 350 352 353 357 357 358 358 357 357 358 358 359 360 361 361 360 359 359 362 365 365 363 359 363 358 357 358 358 362 359 361 360 360 364 365 367 366 369 368 368 369 370 371 371 371 371 371 371 372 373 374 375 372 368 366
333 323 318 320 329 330 328 330 331 333 335 332 333 336 336 337 337 344 334 330 333 330 332 338 338 337 343 343 346 345 343 344 347 347 347 346 347 347 346 346 347 348 349 350 351 355 356 356 356 356 356 357 357 357 359 360 359 358 358 358 359 359 360 361 358 359 358 358 359 358 360 360 361 359 368 369 369 365 364 371 369 370 371 372 373 371 372 372 373 372 373 373 373 372 368 366 365
333 326 320 323 330 328 328 332 333 335 337 334 334 336 333 337 338 340 335 330 329 331 337 337 337 339 342 345 345 344 342 343 346 346 346 345 347 348 348 348 348 348 349 350 351 352 354 355 355 355 356 355 356 356 358 358 359 357 357 357 357 358 357 358 358 358 359 359 360 359 360 360 360 359 359 361 362 360 359 359 360 360 361 361 370 366 365 365 367 365 363 365 363 364 364 363 363
334 328 330 331 331 328 331 331 334 335 337 335 334 329 330 339 336 335 334 327 326 332 338 342 342 343 344 343 344 343 341 343 345 344 344 344 345 346 348 348 350 350 350 348 349 351 353 354 355 354 354 354 356 356 358 360 360 356 357 357 357 358 359 359 358 359 360 360 360 360 361 360 358 358 357 358 359 359 359 359 359 359 359 361 365 363 362 362 361 361 361 360 361 361 362 363 363
324 329 332 333 334 331 332 331 334 335 332 331 330 334 338 334 333 335 337 332 336 342 343 344 346 346 348 347 345 342 341 340 342 342 343 343 344 345 346 347 347 347 348 348 350 352 353 354 354 354 352 354 356 358 358 359 358 357 357 358 357 357 358 358 358 359 359 360 359 361 360 358 357 356 357 357 358 359 358 359 359 358 357 358 362 361 360 360 360 360 359 359 358 359 359 360 359
329 324 332 332 335 333 336 332 333 333 331 330 335 339 333 333 328 336 334 339 343 345 345 345 347 349 349 345 347 344 343 339 340 342 343 344 344 344 345 346 347 348 348 349 350 352 353 353 354 354 352 355 356 358 357 357 357 357 357 361 361 359 359 358 358 359 360 359 360 360 362 357 355 354 355 355 356 358 358 359 358 357 357 357 360 361 359 358 358 358 357 354 354 356 355 355 354
328 326 333 334 335 336 336 336 332 332 333 335 336 331 331 334 332 334 332 338 343 345 345 347 347 347 347 346 345 345 344 340 340 341 343 344 345 345 346 346 345 346 346 348 350 351 352 354 354 353 353 355 356 357 356 356 357 356 357 358 358 362 359 358 358 359 359 359 360 360 360 358 354 354 353 354 355 355 356 357 356 355 355 356 356 357 359 357 355 354 353 352 352 352 352 352 352
332 330 335 333 332 334 335 335 335 338 336 335 333 331 333 336 338 330 333 337 344 345 345 347 346 345 344 345 346 344 342 342 339 340 341 343 344 343 343 343 342 344 345 348 349 349 351 353 353 352 353 355 356 356 355 355 356 355 355 357 357 362 358 358 358 358 358 358 359 360 360 359 355 354 353 353 353 354 355 356 356 354 352 352 352 351 353 354 352 351 351 351 352 351 351 351 354
337 332 332 330 330 332 334 333 334 338 336 336 332 330 331 337 335 323 337 343 347 344 345 345 344 343 344 345 346 346 343 342 340 339 341 341 342 342 341 341 340 342 344 345 347 348 350 351 351 351 352 356 355 355 355 355 357 355 356 357 357 359 358 358 358 357 357 358 358 359 359 359 358 355 353 352 350 351 352 353 352 352 350 349 351 350 352 354 353 352 352 351 350 350 349 349 350
335 332 331 329 330 331 332 332 332 337 336 337 334 332 335 336 335 327 333 342 347 341 343 342 342 342 343 345 345 346 345 342 342 339 338 338 339 339 339 340 339 340 342 343 345 347 347 348 349 348 351 354 355 355 357 355 355 356 357 356 356 358 358 357 357 357 358 357 358 357 357 357 360 358 356 355 352 348 349 349 348 347 346 348 354 352 351 354 354 352 353 352 351 350 348 346 347
333 333 322 325 327 325 329 330 333 335 333 339 339 332 329 329 327 334 338 342 346 342 341 340 340 341 343 345 345 344 343 342 342 341 338 338 339 338 340 341 341 341 342 344 344 345 344 346 347 347 349 353 354 353 354 354 355 356 357 356 357 359 357 358 357 356 356 357 357 357 356 356 360 358 356 355 360 349 347 347 349 354 350 349 350 353 352 352 352 350 350 351 349 347 346 346 348
330 329 324 322 319 316 324 334 336 333 337 339 334 312 314 327 332 337 340 342 343 341 340 339 339 340 341 343 343 343 343 343 342 342 338 338 339 338 340 342 343 342 342 344 344 344 345 346 346 346 347 351 351 351 353 353 355 356 357 356 358 358 357 357 358 356 357 356 356 356 356 355 358 357 356 352 352 348 349 348 349 349 351 353 352 352 350 351 348 346 346 347 352 353 347 345 344
319 324 327 315 312 309 323 333 332 329 337 336 332 313 312 325 332 338 340 343 341 339 340 338 339 340 341 342 341 341 343 343 344 344 343 342 340 339 340 342 343 343 343 343 343 343 345 344 344 344 347 348 351 351 354 353 355 356 356 355 356 356 356 356 357 357 355 355 355 354 355 355 356 356 354 354 351 351 351 352 351 349 351 355 355 353 352 349 346 345 346 344 343 343 343 344 344
323 314 308 313 313 311 322 332 332 329 337 339 330 314 316 325 330 339 341 342 340 337 337 334 337 338 341 341 340 341 341 344 345 349 347 343 344 338 341 341 342 342 342 343 343 342 343 343 345 343 343 343 348 351 353 354 355 355 355 358 355 355 355 355 356 356 355 353 354 353 353 354 355 352 355 355 352 354 352 354 356 356 356 355 350 348 349 346 345 345 345 344 340 341 340 338 338
318 313 309 310 311 311 315 325 331 336 336 339 329 315 323 326 333 339 341 341 339 336 336 335 336 338 339 338 341 340 342 341 343 345 344 345 344 340 340 341 341 342 342 342 341 341 342 342 345 341 340 342 348 351 352 354 355 355 353 355 355 354 353 354 354 354 352 350 351 351 351 351 355 351 354 357 352 355 353 352 349 351 355 350 347 346 345 347 345 346 344 347 344 340 339 340 342
306 315 310 313 311 310 309 318 326 337 335 329 331 321 323 328 334 338 339 340 337 335 335 335 336 338 338 338 339 338 341 340 340 342 343 345 345 342 340 345 342 342 342 342 340 341 339 342 342 341 339 342 348 350 351 353 354 354 353 353 357 353 353 353 353 351 348 347 349 350 350 353 356 351 353 358 354 354 355 353 349 349 349 349 348 346 345 345 344 343 344 348 350 346 343 343 342
304 308 309 310 315 315 313 313 318 335 334 330 330 325 325 329 333 336 337 340 336 334 334 335 335 336 338 339 337 340 341 340 340 342 344 345 345 343 340 341 341 342 341 341 339 340 340 341 341 341 336 342 347 348 351 351 352 352 352 351 351 351 351 350 349 347 347 344 348 350 349 354 358 352 353 357 353 353 355 356 355 352 350 347 345 344 345 345 347 345 348 348 350 349 346 346 345
312 314 311 312 311 309 311 317 324 334 328 327 327 323 325 329 331 335 337 339 333 333 334 334 334 334 336 338 338 340 341 341 343 344 344 345 344 342 340 340 341 341 339 339 340 339 339 338 339 338 336 341 344 346 347 345 346 347 345 345 345 348 347 348 344 342 342 341 347 348 349 351 356 356 354 356 355 357 355 354 354 354 351 350 346 342 340 340 341 342 343 347 348 349 351 348 346
315 316 316 313 311 312 317 318 323 332 325 324 327 325 328 329 330 333 336 337 334 331 331 332 332 333 335 337 338 340 341 342 344 345 345 345 345 344 340 340 340 340 338 338 338 338 338 337 337 334 335 339 342 342 341 342 342 342 343 340 341 343 343 341 344 343 341 340 345 348 349 350 354 356 359 355 355 360 361 356 355 353 350 350 347 344 343 344 345 345 348 352 352 348 347 348 347
314 313 312 310 311 309 315 316 324 325 321 316 324 326 328 330 332 333 335 335 332 331 331 332 333 335 335 336 339 340 342 345 348 346 347 346 344 345 341 340 341 337 337 337 337 338 337 336 336 333 336 339 342 342 341 342 343 341 340 337 338 338 335 340 339 342 340 342 347 347 349 351 354 355 361 357 358 355 354 354 354 353 349 348 352 354 354 359 355 351 349 347 352 349 345 347 346
313 311 310 309 309 313 316 319 321 322 322 318 324 325 326 330 332 334 333 333 334 334 333 334 335 336 336 337 339 340 341 342 344 345 347 346 345 344 342 339 339 338 337 338 338 338 336 335 335 333 337 339 341 341 340 339 343 343 341 339 337 335 338 343 342 345 346 344 347 347 351 352 354 355 359 361 357 357 356 355 354 350 346 350 353 348 347 347 348 350 349 348 345 347 351 351 348
308 310 308 306 311 311 306 312 320 324 321 320 323 322 322 329 332 333 334 333 333 336 336 336 338 337 337 338 339 339 340 341 342 343 343 343 344 343 342 338 339 337 337 337 337 337 336 336 332 333 338 340 341 342 344 339 344 343 342 343 341 339 339 344 345 349 348 348 347 350 352 353 354 355 358 357 359 357 356 354 351 346 346 350 349 346 347 346 346 345 344 345 347 343 341 342 350
308 310 309 308 311 311 311 309 324 327 329 329 325 320 320 326 326 328 332 335 333 334 336 336 338 339 340 341 341 341 340 341 341 342 343 342 341 341 341 337 339 337 336 336 337 337 336 333 331 335 339 339 341 346 344 341 347 346 347 357 351 344 342 344 342 341 345 350 350 350 351 354 354 355 358 358 359 356 355 353 350 349 348 347 349 348 348 347 346 345 344 343 345 344 342 340 344
305 309 310 311 312 312 312 315 317 311 315 324 323 305 311 321 326 327 329 331 329 332 332 332 334 336 338 338 339 341 342 342 341 341 342 342 341 341 341 338 337 336 336 336 337 337 336 333 332 337 339 339 341 343 342 343 347 341 350 348 343 338 335 337 336 337 343 347 348 350 352 355 355 356 357 357 357 358 354 353 351 351 349 348 350 349 348 348 347 345 343 343 344 346 344 341 338
306 307 315 313 313 312 311 310 309 304 306 319 324 304 298 315 321 325 327 328 328 330 330 331 333 334 336 337 338 339 341 341 342 342 343 343 341 340 341 339 336 335 336 337 336 336 336 333 334 339 339 340 340 341 341 345 344 343 349 348 344 338 334 335 338 341 343 347 348 347 350 352 355 356 355 355 355 356 354 352 352 351 349 346 352 352 349 347 345 343 346 344 345 348 347 344 348
305 313 315 313 312 311 311 311 309 305 312 317 322 311 302 305 314 327 328 326 327 328 328 330 331 333 335 337 338 339 340 341 340 342 342 342 341 340 340 340 336 335 336 336 335 336 335 334 336 339 341 343 341 339 338 342 344 346 348 349 351 341 337 336 340 341 344 348 343 346 349 351 352 353 353 351 350 350 353 350 349 348 346 346 352 350 348 347 347 348 353 352 355 357 355 352 349
307 313 314 312 312 312 312 310 307 308 308 304 309 318 303 304 312 327 328 323 324 326 327 329 331 332 334 336 338 338 340 342 343 341 341 341 340 340 341 340 337 336 336 336 335 336 336 336 337 339 341 343 342 339 337 342 349 349 349 349 348 351 344 342 350 358 356 352 342 342 346 350 350 350 350 348 346 346 354 351 348 347 346 348 357 352 350 348 352 355 354 352 349 347 347 347 341
313 316 316 315 315 314 312 308 306 307 304 297 305 312 301 301 313 321 326 324 323 325 328 330 332 333 334 335 337 339 340 342 343 344 342 342 341 341 342 341 338 336 336 337 336 336 336 337 337 339 340 342 342 340 342 345 350 352 348 348 347 347 349 348 347 345 349 355 341 338 343 347 349 347 347 346 344 344 348 352 350 348 350 350 357 353 353 358 358 354 349 343 341 339 339 339 337
314 315 312 309 308 308 309 309 308 302 298 299 309 313 305 297 308 320 320 323 327 328 329 331 332 334 335 336 337 338 339 341 342 342 342 343 343 342 342 340 338 336 335 336 337 336 336 337 337 338 340 342 343 341 347 347 351 350 348 348 347 346 344 345 346 343 346 349 342 340 343 346 348 348 346 346 345 344 343 350 351 351 351 355 362 360 359 358 353 348 344 340 339 338 337 336 337
315 310 308 303 303 306 306 305 305 297 296 302 311 313 310 298 303 317 327 329 330 330 328 329 331 333 335 336 337 339 340 341 342 342 342 343 342 342 341 339 337 335 335 335 336 336 336 336 337 337 339 343 342 346 350 349 352 349 347 348 348 347 345 344 345 342 343 344 344 341 343 344 346 347 344 343 343 345 347 347 361 354 364 363 359 357 355 352 346 344 341 340 339 339 337 338 335
308 308 304 301 294 297 293 297 295 296 295 304 310 311 307 302 306 315 325 329 329 332 332 332 332 333 335 336 338 339 340 341 341 341 342 342 341 340 340 338 337 334 334 334 336 336 336 336 335 334 338 344 342 349 351 351 352 350 347 347 348 351 353 352 349 345 345 343 342 342 342 341 341 342 339 340 342 343 347 349 352 363 364 360 357 352 349 345 342 341 340 340 339 337 335 334 333
304 304 303 298 295 293 291 293 297 298 304 308 307 312 302 307 312 317 319 327 331 331 334 335 334 334 335 337 338 339 340 341 341 341 341 341 341 341 340 338 337 336 335 334 336 335 335 336 335 333 336 344 343 348 352 350 352 353 350 348 348 354 355 353 354 348 346 344 344 342 340 339 339 340 340 339 341 344 351 360 363 364 362 358 352 345 344 344 342 340 340 339 338 336 334 332 332
303 307 306 302 298 296 292 293 291 292 296 304 311 305 300 302 306 320 323 323 326 331 335 336 336 336 337 338 339 339 339 340 341 341 340 341 341 341 340 339 339 337 336 334 336 334 334 335 336 334 337 344 343 347 353 351 351 354 353 352 351 353 354 356 354 352 347 345 345 343 342 340 338 338 340 344 351 355 359 358 357 355 350 346 343 342 343 341 340 340 340 338 338 335 332 332 331
304 310 308 303 302 302 296 297 296 297 299 301 303 303 307 306 315 324 326 325 328 328 333 335 334 335 336 336 337 338 339 340 341 342 340 340 341 342 340 340 340 338 337 333 336 335 334 335 336 335 339 345 345 347 352 353 352 354 353 353 352 354 358 357 356 360 356 348 345 345 343 342 341 340 341 350 355 358 356 353 351 347 344 343 343 343 342 340 339 337 336 335 334 336 331 331 330
305 311 303 305 311 308 302 305 308 304 299 296 307 305 309 313 318 320 321 325 326 329 331 333 333 334 335 335 337 338 339 339 340 342 341 340 341 342 341 341 341 341 341 335 334 335 335 336 336 335 340 346 346 347 350 353 353 353 353 354 353 353 355 354 352 351 351 353 352 348 345 343 342 344 347 355 355 355 352 348 344 343 342 342 342 342 342 340 337 335 334 333 331 331 333 330 330
306 301 306 311 315 309 302 295 296 295 293 296 305 302 302 306 301 316 318 322 323 327 329 332 332 333 334 335 336 337 338 339 341 343 343 341 342 343 343 343 342 342 342 336 333 336 336 338 338 337 342 347 347 348 349 352 353 353 353 353 352 352 353 353 352 350 351 350 348 348 348 346 343 343 356 357 355 353 349 348 342 342 342 342 341 341 340 339 336 334 333 333 332 331 329 330 332
307 306 314 306 300 299 301 299 292 293 294 295 298 304 304 304 304 312 314 317 321 325 329 330 331 332 333 334 336 337 339 340 341 342 343 342 342 342 342 342 343 342 343 339 335 336 336 339 340 339 342 349 349 350 350 352 353 354 354 354 353 352 352 352 352 352 351 348 347 344 345 342 346 353 357 353 352 348 344 342 342 341 341 340 340 340 340 337 335 333 334 332 331 331 329 328 329
312 313 310 315 305 301 300 300 299 296 294 296 294 301 297 309 307 313 315 316 320 325 328 329 331 332 334 335 336 337 339 340 341 342 342 343 343 343 343 342 342 342 341 339 335 336 336 339 342 341 344 350 351 352 352 351 352 353 354 353 352 352 352 351 351 350 349 347 346 346 342 352 353 354 352 351 348 345 343 342 342 341 341 340 339 339 337 335 333 331 331 330 330 330 330 329 328
303 305 302 305 306 307 305 305 301 297 293 292 293 294 299 304 312 315 316 316 320 327 328 329 332 333 335 336 336 337 337 337 341 343 342 343 343 343 343 343 343 342 342 339 336 336 337 340 343 343 342 349 351 352 353 352 352 352 353 351 351 350 350 351 350 349 347 347 345 350 352 355 353 351 349 345 343 343 343 343 342 342 339 338 338 336 335 332 332 330 330 329 328 328 327 328 329
302 303 302 303 302 301 298 295 302 301 296 296 292 291 300 310 319 318 317 318 323 327 330 330 332 333 334 336 337 338 336 335 339 344 343 343 343 343 343 343 344 341 341 338 337 337 337 341 344 343 341 347 351 351 352 352 352 352 350 351 350 348 348 347 348 348 347 346 342 351 355 353 352 350 346 343 342 343 343 342 341 340 339 338 336 334 332 331 330 329 329 332 329 327 326 325 326
Wind_Speed
13 8 6 5 4 4 2 1 0 1 0 2 2 1 2 1 1 2 4 3 2 2 4 6 6 1 2 2 4 3 1 10 1 8 5 2 12 15 13 13 14 13 13 10 9 12 12 14 16 16 17 17 18 18 17 16 16 16 15 14 14 13 13 12 12 11 11 10 10 9 9 8 8 8 8 7 7 7 7 7 6 5 4 4 4 4 4 4 5 5 6 6 5 5 6 6 7
6 6 4 4 4 2 0 1 1 0 2 2 3 1 1 1 0 2 3 2 1 1 2 5 1 0 2 6 5 2 6 4 2 4 4 10 16 12 14 14 15 15 12 10 9 10 10 11 15 15 17 18 18 17 17 16 15 15 15 15 14 14 13 12 12 11 11 10 10 9 8 8 8 8 7 7 6 6 6 5 4 3 3 3 3 3 3 4 3 4 4 4 5 5 6 7 8
5 5 4 3 2 0 0 0 0 1 1 2 2 3 1 1 2 1 0 1 1 2 2 3 1 4 2 3 3 2 1 3 13 9 9 15 16 9 15 15 14 13 13 10 9 9 8 10 15 15 17 17 18 17 17 17 16 15 15 15 14 14 13 13 12 11 10 10 9 9 8 8 8 8 7 7 6 6 6 5 5 4 3 3 2 2 2 3 4 4 5 5 6 7 8 9 9
4 3 4 1 0 1 1 0 1 0 0 2 4 1 1 0 1 0 0 1 2 4 3 3 4 1 1 9 4 9 5 3 7 16 10 12 8 15 15 16 15 11 10 9 9 8 8 12 15 15 15 16 17 17 17 16 16 15 15 14 14 14 13 12 12 11 10 9 9 8 8 7 7 7 7 7 7 6 5 4 4 3 2 1 1 2 3 4 5 5 5 6 7 8 8 9 9
5 2 3 1 0 1 0 1 1 1 2 1 3 1 1 1 1 0 2 4 2 3 3 1 2 1 0 3 1 1 3 7 6 4 11 8 13 15 16 15 13 12 11 10 9 8 8 15 14 15 15 16 17 17 17 17 16 15 15 15 14 13 13 12 11 11 10 9 9 8 7 7 6 6 5 5 5 5 4 5 5 3 2 1 0 2 3 4 5 6 7 7 8 8 9 9 9
4 2 1 0 0 1 0 1 2 2 3 1 2 1 2 1 2 0 3 1 1 3 2 3 2 2 4 3 2 4 9 5 6 7 10 12 18 18 17 14 13 12 11 10 8 7 8 16 15 15 15 16 17 17 17 16 16 15 15 14 14 13 13 12 11 10 10 9 9 7 7 7 6 6 6 7 7 6 6 6 4 3 2 0 1 4 5 6 6 7 7 7 7 8 8 9 9
2 1 1 0 0 0 1 1 4 3 3 3 2 2 2 2 2 3 3 3 2 4 1 1 3 4 5 1 3 2 4 2 5 9 8 17 19 18 17 13 13 12 11 9 8 7 10 16 16 16 16 16 17 17 17 16 15 14 14 14 14 13 13 12 12 11 11 10 8 8 7 7 7 7 7 6 6 5 4 4 3 2 1 2 4 5 6 6 6 6 6 7 7 8 8 9 9
1 0 1 1 1 0 2 2 5 1 1 2 2 3 1 2 3 3 4 1 2 1 2 2 1 3 5 5 3 2 3 3 10 16 17 16 17 17 16 14 14 12 11 9 8 7 12 18 17 16 16 16 16 16 16 15 14 14 13 13 12 12 13 12 12 12 11 10 9 9 8 8 7 6 5 5 5 4 3 3 2 2 2 3 4 5 5 6 5 6 6 7 7 8 9 9 9
2 1 1 0 2 0 2 2 4 0 3 1 3 1 1 3 4 1 2 2 1 0 2 2 2 4 1 3 3 1 1 11 17 19 17 18 18 17 13 15 14 12 12 10 9 8 9 16 17 18 17 16 16 16 16 15 14 14 13 14 13 13 13 13 12 11 11 10 9 9 9 8 6 5 5 5 4 4 4 3 3 2 4 4 4 5 5 6 6 6 6 7 8 8 9 10 9
1 1 1 1 1 4 3 3 4 2 1 2 3 3 0 3 6 1 3 3 2 2 1 1 2 6 6 8 5 5 7 17 19 17 17 18 18 16 15 16 15 16 13 11 9 8 7 15 18 18 18 17 16 16 16 15 15 14 14 13 13 13 13 12 11 11 10 9 9 9 8 7 6 5 5 5 4 4 4 4 3 3 4 4 5 6 6 6 6 6 7 8 8 9 9 11 9
1 2 0 1 3 2 3 5 4 3 3 2 3 0 1 2 5 4 3 1 1 1 1 2 5 4 4 3 2 3 3 20 19 18 17 18 17 16 15 14 13 15 14 13 10 9 8 10 17 18 17 17 16 16 15 15 15 14 14 13 12 12 12 11 11 10 10 9 8 8 7 6 5 6 5 5 5 4 4 4 4 5 5 5 6 6 6 6 7 7 7 8 9 9 10 11 11
2 2 2 3 2 1 2 3 5 6 3 1 1 2 1 1 5 4 4 5 2 2 1 2 3 3 7 3 4 7 1 16 18 18 17 17 15 16 15 11 13 12 14 13 11 9 9 8 9 15 17 17 16 16 15 15 14 14 13 13 12 11 11 10 10 10 9 9 8 7 6 6 6 6 6 6 5 5 5 5 5 5 6 6 7 7 7 7 8 8 8 9 10 11 11 10 11
2 0 1 2 3 2 3 2 3 6 4 1 2 1 2 1 2 3 8 3 3 4 2 1 2 2 5 4 2 4 3 8 14 18 18 15 15 14 11 12 13 13 13 11 11 10 10 8 8 9 11 17 16 15 15 14 14 14 13 12 12 11 11 10 10 9 8 8 7 7 7 7 7 6 6 6 6 5 5 5 6 6 7 7 7 7 7 8 8 9 10 10 11 12 12 11 11
2 1 1 1 1 1 3 3 4 4 3 1 0 2 1 1 1 3 2 5 4 3 0 1 2 1 8 6 1 3 1 4 15 17 14 16 14 13 14 12 13 13 12 11 11 10 9 8 7 8 9 9 8 12 15 15 14 14 14 12 12 11 10 10 9 9 8 7 7 7 7 7 6 6 6 6 6 5 6 6 7 7 7 8 8 8 8 8 9 10 10 11 11 12 13 13 12
3 2 1 1 0 1 2 3 4 4 6 1 1 1 1 2 2 2 1 5 0 1 1 1 2 1 7 10 5 9 10 9 14 15 14 15 16 14 14 12 13 12 11 11 10 10 9 8 8 6 6 7 7 5 5 9 14 13 13 12 12 11 10 10 9 8 8 7 7 7 7 7 7 6 7 6 6 7 7 8 8 9 9 9 9 9 9 9 10 10 11 11 12 13 13 14 13
2 3 0 1 1 0 1 2 3 3 6 1 0 1 1 0 1 2 1 1 1 1 0 0 1 2 4 4 10 12 13 9 8 13 15 17 16 14 13 12 11 11 10 10 9 8 8 8 6 6 6 6 6 5 5 5 10 13 12 12 11 11 11 10 9 8 8 7 7 7 7 5 5 5 7 5 7 8 8 8 8 9 10 10 9 10 10 10 11 11 11 11 12 13 13 14 14
1 2 1 1 1 1 2 1 1 3 5 2 2 1 0 0 0 1 4 1 6 2 1 2 3 1 2 5 11 15 16 12 13 18 16 14 12 10 9 9 9 10 9 8 8 8 8 8 7 6 6 7 6 5 5 4 7 12 10 12 12 12 10 10 10 10 8 8 6 7 6 3 2 2 4 3 6 5 8 10 10 10 10 11 11 11 11 11 11 11 11 12 12 13 13 15 15
2 2 2 1 2 2 4 4 6 2 3 3 3 3 3 1 1 1 2 4 2 2 2 3 1 1 1 3 4 12 17 18 17 17 15 13 11 10 9 9 10 10 9 8 9 8 8 7 8 7 6 7 6 6 4 4 4 9 4 4 5 7 8 9 6 3 6 2 7 5 2 1 2 3 3 6 4 5 7 12 11 12 12 12 12 12 12 12 12 12 12 13 13 13 14 8 7
1 0 1 2 4 2 2 4 6 3 9 5 3 3 4 3 3 2 3 1 4 3 1 1 0 3 1 7 9 12 15 17 17 16 17 16 13 14 12 10 10 10 9 9 8 10 7 7 7 8 7 7 7 5 5 4 4 3 4 3 3 7 4 5 3 3 3 3 2 2 2 3 3 3 3 5 6 9 9 13 12 12 12 12 12 12 12 12 12 13 14 14 14 15 9 6 6
3 2 2 4 6 9 10 9 8 11 4 3 3 3 4 1 2 2 2 4 3 8 6 2 3 4 4 8 9 11 15 17 16 17 18 16 16 15 14 13 11 11 11 9 9 9 9 8 9 8 9 8 6 5 4 4 3 3 4 3 2 3 3 2 3 3 3 2 3 3 3 3 3 4 7 12 10 6 6 10 12 12 12 12 13 9 10 11 13 14 14 15 10 6 5 6 6
2 2 3 5 4 3 12 12 13 10 6 4 4 3 3 2 2 1 5 6 4 4 4 7 10 9 7 10 11 11 14 15 16 17 17 16 15 12 13 13 12 11 10 9 8 9 11 10 9 8 8 8 7 5 5 5 4 4 4 4 3 3 3 2 3 3 3 3 4 4 4 4 5 5 6 6 6 5 5 5 4 4 4 5 8 5 5 6 6 6 6 7 5 6 5 6 6
3 7 6 5 4 4 12 14 10 9 6 5 3 7 5 2 1 2 8 8 9 10 9 6 6 7 7 13 11 13 15 13 17 16 16 17 16 13 12 11 10 10 10 9 10 9 11 10 10 8 8 7 7 6 6 5 5 5 5 4 4 3 4 3 3 4 4 5 4 4 5 6 6 6 5 6 6 6 6 5 5 5 4 6 5 5 5 5 6 6 6 6 6 5 6 6 6
3 4 6 8 7 5 16 15 11 11 5 6 8 4 6 6 1 3 4 9 0 3 4 6 5 5 5 9 13 14 15 15 16 17 16 16 15 14 13 12 12 11 10 9 9 8 10 11 10 9 9 7 8 7 5 5 5 5 5 5 4 4 4 4 4 4 5 5 5 5 6 6 6 5 5 5 6 5 5 5 5 4 5 6 6 5 6 6 6 6 6 6 6 5 6 6 6
4 6 2 6 5 8 7 18 14 12 10 10 6 6 5 8 3 3 6 6 1 2 7 6 4 4 4 11 13 15 14 17 14 15 17 17 16 16 14 14 12 10 10 11 9 10 10 12 11 10 9 8 8 8 7 6 5 5 5 5 6 5 5 5 5 5 5 6 6 6 6 5 5 5 5 5 5 4 6 5 5 5 5 6 6 5 6 6 6 6 6 6 6 5 6 6 5
4 4 4 5 4 5 7 7 18 14 11 6 9 7 6 10 5 6 7 7 2 3 5 5 4 4 4 6 10 10 10 15 15 15 14 13 15 14 14 11 12 12 12 12 10 11 12 11 12 12 10 10 8 8 8 7 6 6 6 6 6 6 5 6 6 5 6 6 6 7 5 5 5 5 5 6 5 6 6 6 5 6 6 6 5 6 6 7 6 6 6 6 5 5 5 6 6
4 7 3 4 6 7 7 4 7 12 6 9 6 2 1 5 4 4 5 4 5 4 6 6 7 7 6 6 7 9 9 11 16 16 16 14 14 15 14 12 11 14 13 12 12 11 12 12 13 13 11 10 9 8 6 7 7 7 7 6 6 6 6 6 6 6 6 6 7 6 6 5 6 6 6 5 5 6 6 6 6 6 7 6 5 7 6 6 6 5 6 5 6 6 6 7 6
3 4 5 7 11 8 5 5 4 12 10 12 7 5 4 4 3 3 2 4 3 7 7 7 9 9 8 5 4 5 7 10 15 14 14 13 14 15 14 13 12 13 13 13 12 11 11 12 13 12 12 10 8 9 7 8 7 7 7 7 6 6 7 7 6 6 6 6 6 6 6 6 6 5 6 6 5 6 6 6 6 6 5 6 6 6 4 5 5 5 6 6 6 6 6 6 5
3 5 6 9 10 6 9 7 5 7 4 8 10 3 3 3 1 4 4 3 4 9 8 9 8 9 8 5 5 4 3 5 9 10 16 16 13 11 15 12 14 13 14 14 11 11 11 14 13 12 12 11 10 9 8 7 8 7 7 6 7 6 7 6 6 6 6 6 6 6 6 6 5 6 6 5 6 6 7 5 6 5 5 3 2 2 2 4 5 6 6 6 6 5 6 6 6
3 2 5 10 7 6 6 5 3 9 3 7 12 10 1 2 5 1 5 5 4 9 9 10 9 8 8 5 5 4 5 6 5 4 13 11 11 9 15 14 14 12 11 14 12 12 13 13 12 12 12 11 11 10 9 8 7 7 7 7 6 6 7 6 5 6 6 6 6 6 6 6 5 6 6 6 8 6 4 4 3 2 2 4 3 2 3 3 3 4 6 6 6 5 6 7 5
3 1 3 7 5 5 8 1 2 8 4 12 6 2 4 9 7 3 6 7 5 7 9 9 7 7 7 6 7 5 3 6 5 4 8 10 11 9 14 15 14 12 10 10 12 12 11 10 9 10 12 12 11 9 8 7 7 7 6 6 6 6 6 6 6 6 6 6 5 6 6 6 6 6 6 6 5 2 3 2 2 4 3 3 3 3 4 3 5 5 6 4 5 5 6 7 6
2 4 0 5 5 4 4 1 5 5 2 9 4 3 4 5 4 3 5 7 9 9 8 6 8 6 5 6 6 6 4 5 5 5 5 7 7 10 15 14 13 12 9 12 13 11 13 11 9 9 11 12 11 9 9 8 8 7 7 6 6 6 6 6 6 6 6 6 6 6 6 6 6 6 6 4 1 0 1 2 3 5 4 3 2 4 4 5 5 6 5 5 5 5 5 6 6
2 3 4 3 2 6 5 1 7 6 2 5 5 1 5 7 6 5 6 6 6 9 8 5 4 7 4 4 7 7 5 4 3 1 3 6 4 7 15 15 14 13 11 13 12 11 14 11 11 10 11 12 10 10 9 9 9 8 7 7 6 7 6 7 7 6 6 5 5 6 7 7 6 6 4 3 2 1 0 2 4 5 4 2 4 4 3 5 5 5 6 4 4 6 4 5 5
1 5 5 4 1 5 6 2 8 9 5 3 5 3 2 1 3 6 6 7 7 7 8 10 6 6 4 4 2 4 5 4 5 6 9 5 6 4 13 14 14 14 12 12 12 12 13 12 13 12 11 12 11 11 10 8 7 7 7 8 8 7 7 7 6 6 5 5 6 6 7 6 6 5 4 3 2 2 2 2 5 5 3 4 4 4 4 5 5 5 5 4 4 4 4 5 6
5 1 4 3 3 2 3 5 1 7 11 4 2 3 4 2 8 7 6 7 7 7 7 6 5 5 4 5 6 3 4 7 9 10 11 9 7 5 10 13 15 15 13 13 12 13 12 12 11 11 9 10 11 10 10 9 8 8 7 7 6 7 8 7 6 6 6 6 6 7 6 6 5 4 3 3 3 3 2 2 4 5 4 3 5 4 6 5 4 5 5 4 2 3 4 5 6
4 1 2 6 3 4 9 2 2 10 6 8 5 3 2 6 7 8 8 7 7 7 8 8 6 5 6 5 7 9 8 8 10 11 13 10 8 7 9 11 14 14 12 12 13 11 10 11 10 10 8 10 11 10 9 8 8 7 6 6 6 7 6 7 6 6 7 6 6 6 5 5 5 4 4 4 4 3 4 4 4 5 4 4 4 5 5 6 5 3 4 6 5 4 4 5 5
6 3 4 4 3 5 3 7 5 14 6 4 8 7 6 8 8 7 6 7 7 6 4 5 5 5 5 6 7 7 7 8 9 10 10 8 7 7 5 11 12 10 10 11 13 11 12 11 11 8 8 10 10 9 8 7 6 6 6 5 5 6 6 5 5 6 6 5 6 6 6 4 4 4 4 4 4 4 4 5 4 5 4 3 4 4 5 5 6 6 7 5 7 6 4 5 3
7 4 4 7 5 6 6 6 6 10 5 7 10 4 7 9 10 11 9 7 6 8 7 7 6 7 7 7 8 7 8 9 7 9 9 9 6 4 5 8 12 10 10 11 12 12 12 12 11 9 8 9 9 8 6 7 6 5 3 6 7 7 7 5 5 6 7 6 7 7 7 6 5 4 4 4 5 5 4 4 4 5 4 3 3 4 4 6 5 4 5 4 5 5 5 4 2
10 9 9 8 3 5 8 6 4 8 8 4 5 6 6 9 8 9 8 9 10 11 10 9 10 9 8 9 9 8 7 5 5 5 7 8 7 5 5 7 9 11 9 12 12 13 12 13 13 10 8 9 10 9 8 7 5 6 5 5 5 7 6 5 6 6 7 7 7 7 6 6 6 5 5 5 5 5 5 5 5 6 5 4 4 4 4 4 5 5 4 5 2 3 3 4 5
11 10 8 3 7 5 10 5 1 8 4 2 8 8 6 8 8 9 12 13 9 10 12 13 13 11 10 10 9 8 7 9 7 5 5 5 7 7 5 7 7 10 10 13 12 12 12 13 12 9 9 9 9 9 8 7 5 6 5 5 7 6 5 6 7 4 6 7 7 7 7 6 6 6 5 5 5 5 5 4 6 6 5 4 4 6 5 5 4 5 4 4 7 2 2 4 5
7 7 2 6 6 1 5 4 1 2 1 4 4 8 3 2 3 9 10 11 7 7 8 8 10 13 13 13 11 10 9 11 11 7 6 7 6 5 5 7 10 7 9 12 11 12 11 10 10 9 9 9 9 8 8 6 5 5 5 5 6 6 5 4 4 2 3 5 6 6 5 6 7 6 6 6 5 4 4 6 6 5 6 4 4 5 5 5 5 6 5 6 3 6 2 3 3
5 6 5 4 3 5 5 2 1 3 6 9 11 7 2 4 5 5 6 5 4 6 5 5 7 8 8 8 9 10 10 12 12 10 8 9 9 7 7 6 10 9 10 11 11 11 9 12 11 11 9 9 8 8 8 6 4 4 3 1 1 2 4 3 3 1 3 4 4 4 6 5 7 7 6 6 5 6 5 5 6 6 5 5 4 5 5 6 5 4 6 6 3 2 5 2 3
3 5 9 6 4 4 7 2 4 3 1 4 11 2 4 6 8 9 7 6 7 7 9 9 8 8 7 9 11 10 8 10 14 14 11 11 11 7 7 5 10 10 10 11 12 12 12 11 11 9 8 7 8 8 8 6 5 6 3 4 3 3 5 4 6 3 4 5 7 7 5 7 8 6 6 6 6 5 6 6 5 6 6 7 6 5 4 5 5 5 5 3 2 2 2 3 3
1 4 2 5 4 3 4 4 3 2 2 7 4 3 2 2 7 7 8 9 8 5 10 11 9 9 9 10 10 10 11 9 11 13 12 11 9 8 8 6 8 10 9 10 11 11 13 13 12 11 9 8 8 8 7 7 5 4 5 5 6 7 7 6 4 3 5 7 6 7 6 7 7 7 6 6 7 6 5 5 5 6 7 6 4 3 4 4 5 5 4 5 5 5 2 2 4
2 5 5 3 3 4 6 7 3 4 3 2 8 2 2 1 7 5 9 10 8 8 10 10 11 11 12 11 11 10 11 11 11 13 12 11 10 9 10 8 8 10 9 11 10 11 13 13 12 11 9 8 8 7 7 7 6 5 5 5 5 6 7 8 6 5 3 4 6 6 6 6 6 6 7 7 7 5 5 6 5 6 6 5 3 3 4 5 5 3 4 4 4 5 3 4 3
4 5 6 4 3 5 6 5 5 2 1 1 3 2 2 1 2 4 9 8 7 11 12 12 12 13 14 13 12 11 11 12 11 12 13 12 11 10 9 8 8 9 11 11 10 12 12 13 12 11 10 9 8 8 8 7 6 6 6 6 4 4 6 7 4 1 3 3 3 4 5 6 6 6 7 7 5 5 5 6 5 6 5 1 1 3 3 3 4 4 5 5 5 5 5 4 5
3 6 5 3 3 3 4 4 4 2 0 4 6 4 2 3 1 4 2 4 9 12 13 14 14 15 15 14 13 13 11 10 12 15 13 12 10 11 10 8 8 8 11 11 11 12 12 12 12 12 10 9 8 7 8 7 6 6 6 5 5 4 3 4 1 1 1 0 5 5 5 5 6 6 7 6 5 5 5 5 4 4 1 1 2 2 4 4 3 4 6 6 6 6 5 6 6
4 1 3 5 4 3 3 2 0 3 2 2 6 8 5 2 5 8 9 8 13 9 8 10 11 12 13 14 15 13 12 11 10 12 13 12 10 10 10 10 9 8 10 12 12 12 12 12 13 13 12 9 9 8 8 8 6 7 6 6 5 4 4 3 0 1 1 1 3 5 6 7 6 8 6 6 5 5 5 4 1 1 1 2 4 5 4 3 3 5 6 7 8 7 6 6 6
2 1 0 4 7 5 2 3 3 2 1 6 3 1 2 2 2 5 13 5 6 10 14 16 15 16 15 14 14 15 13 12 11 10 12 12 10 10 10 10 10 10 12 10 13 12 12 12 12 13 10 10 9 9 8 8 7 7 6 6 6 5 4 3 3 4 3 4 4 6 7 7 7 7 5 4 5 6 4 3 1 2 5 4 6 5 3 2 4 5 7 7 6 6 6 6 6
3 3 4 1 3 4 3 4 2 1 2 3 4 6 3 1 2 7 12 13 8 10 11 16 18 17 15 14 15 14 13 13 13 11 11 12 11 12 11 11 9 9 12 11 14 13 12 12 13 13 10 10 10 9 8 8 7 7 6 6 5 4 3 3 4 4 4 5 5 5 4 6 6 6 6 6 6 6 6 3 4 5 5 6 5 4 3 5 6 7 6 7 6 6 7 7 7
2 0 2 2 0 0 1 2 1 1 5 5 6 2 0 2 6 4 7 12 14 11 12 14 17 18 18 16 14 14 13 13 13 12 12 12 11 11 11 11 10 9 12 11 14 13 12 11 12 13 11 9 9 9 8 8 8 7 6 6 6 4 4 3 4 4 6 6 6 6 6 6 7 7 6 6 6 3 2 5 6 6 6 5 4 4 6 6 6 6 5 6 8 6 7 7 7
3 3 5 6 4 1 2 1 1 3 5 3 1 2 3 2 3 1 1 2 5 10 11 12 15 16 17 15 14 14 13 13 12 13 13 13 12 11 10 10 9 9 12 11 12 13 12 12 12 12 11 8 10 10 8 8 7 7 6 6 5 4 4 3 5 5 5 5 5 4 4 5 5 5 4 1 3 5 5 6 7 7 6 5 4 5 6 6 6 6 7 7 7 6 7 7 6
3 1 4 4 4 6 3 5 3 2 1 1 2 1 1 3 3 2 1 2 1 4 8 8 9 9 11 11 13 14 13 13 12 12 14 15 13 10 10 8 8 7 8 8 14 13 13 13 13 12 13 11 10 10 8 9 8 7 6 6 6 5 4 4 5 3 4 4 3 2 3 4 5 3 2 3 4 7 7 8 8 7 6 6 6 6 7 7 6 7 8 7 7 5 6 6 5
2 0 1 7 5 5 0 3 2 3 6 2 1 3 1 3 2 2 4 1 0 1 6 9 10 12 13 13 13 14 14 13 12 12 12 15 13 10 9 8 8 7 7 7 11 14 14 13 12 12 12 10 11 11 10 8 7 7 7 7 6 5 5 5 5 4 5 3 3 3 4 5 5 2 4 5 6 5 7 8 8 7 6 5 6 7 8 7 7 8 7 7 6 5 5 5 5
4 1 8 3 1 3 3 3 2 2 3 2 0 5 2 0 2 2 2 2 1 3 6 9 10 12 14 13 13 14 14 14 14 12 11 14 13 11 9 8 8 7 7 7 11 10 14 15 14 14 12 12 10 11 10 9 8 8 7 8 7 6 6 5 4 5 5 3 3 3 3 5 5 1 6 7 7 8 7 8 7 7 6 6 8 7 7 7 8 7 7 6 4 4 5 5 5
7 6 3 2 1 2 3 2 2 0 0 1 2 2 1 5 4 0 4 5 4 4 5 7 9 11 12 12 13 12 12 11 13 13 10 11 12 11 10 9 8 7 5 7 11 12 10 12 15 15 16 15 14 11 10 9 9 7 7 8 7 7 6 5 5 5 5 4 4 5 2 2 0 4 7 7 8 8 7 7 7 7 7 7 7 7 7 8 7 7 6 6 4 4 4 5 5
2 2 1 2 3 4 1 5 3 4 1 1 3 3 3 5 5 7 8 9 6 6 7 10 12 13 11 11 12 12 11 11 12 13 11 11 11 12 10 9 9 8 7 6 10 11 13 12 13 12 12 11 10 10 10 10 9 8 8 6 6 6 6 6 6 6 6 6 5 3 3 4 3 4 7 7 7 7 7 7 7 7 7 7 7 8 8 8 7 6 6 5 3 3 4 4 4
3 1 3 1 2 3 3 0 3 4 3 4 3 1 3 6 5 7 11 9 9 12 11 8 9 10 10 11 12 12 10 8 10 9 11 11 12 11 9 8 7 6 5 6 8 13 14 11 12 12 13 11 11 10 10 9 8 8 7 9 8 7 8 7 6 6 7 7 6 0 5 6 5 5 6 8 8 7 7 7 8 7 7 7 7 8 6 6 6 6 5 3 3 3 4 3 3
5 7 7 8 4 2 1 7 3 1 4 3 4 2 4 7 2 8 8 7 7 10 11 9 8 9 9 9 10 11 10 10 9 8 9 10 10 10 9 7 2 6 6 6 9 12 13 12 12 12 12 11 12 10 10 8 8 8 7 8 8 6 7 6 7 8 7 8 2 3 7 7 8 5 7 8 8 7 7 8 8 8 7 7 8 7 6 6 6 6 4 2 3 3 3 3 3
Wind_Direction
122 124 136 144 112 121 106 339 105 259 126 246 264 208 274 118 143 206 196 245 143 153 152 250 244 208 150 205 154 155 309 145 230 148 211 165 133 141 139 131 137 140 140 150 154 154 164 162 156 154 149 147 150 154 154 158 157 157 154 151 148 146 144 141 139 136 136 132 131 128 125 124 125 123 119 115 111 113 112 110 106 108 106 105 91 78 75 61 49 38 34 23 8 0 358 349 352
108 117 126 137 127 136 357 197 123 346 213 269 240 91 290 346 101 232 214 212 141 162 184 233 307 12 145 110 130 115 28 13 63 108 67 122 126 135 134 135 143 143 143 148 153 154 157 160 158 156 152 149 150 155 157 159 160 159 159 156 154 151 149 147 146 145 143 141 138 136 134 132 132 129 123 119 117 115 111 107 99 109 115 105 109 96 69 52 38 42 31 16 4 353 350 344 350
96 109 85 67 42 57 73 190 76 259 258 326 271 196 349 227 233 304 14 265 338 321 303 270 64 40 359 53 34 54 231 74 94 93 108 135 130 142 139 139 141 140 141 145 150 151 155 159 159 156 154 151 151 155 157 161 162 162 162 162 159 157 154 152 152 151 150 148 146 145 143 142 139 138 135 132 134 134 143 145 154 153 159 141 109 79 49 23 32 25 17 12 353 357 349 347 343
89 38 123 147 343 358 92 347 156 174 226 234 302 213 174 168 280 112 275 320 333 333 321 4 62 177 89 79 76 83 98 107 129 129 130 158 149 140 141 140 139 138 139 144 148 152 153 160 158 158 156 154 155 154 157 159 163 164 166 166 165 163 161 160 159 157 155 154 154 151 152 149 149 148 145 144 145 153 151 158 174 171 160 122 53 31 14 11 15 12 6 5 356 349 347 340 338
62 27 48 105 117 335 120 204 218 156 260 196 248 260 246 70 237 308 58 317 319 311 314 31 74 17 71 104 292 105 139 101 105 81 123 121 129 136 140 136 136 140 143 143 146 148 155 158 159 160 159 159 158 157 157 158 161 163 168 169 170 169 169 170 168 164 161 161 160 160 158 159 158 151 147 147 154 159 175 180 189 191 187 170 5 6 358 359 5 4 1 357 352 346 338 332 334
72 32 359 81 84 245 21 8 294 250 231 133 244 307 46 16 345 68 49 284 301 325 300 308 155 193 50 12 335 113 125 135 141 114 123 136 138 137 137 138 137 140 143 142 144 147 155 159 161 162 162 162 162 161 159 160 160 162 165 167 168 171 174 173 172 169 167 167 167 166 164 167 165 163 166 171 175 183 189 194 202 193 224 320 359 347 353 357 357 2 356 345 340 340 333 329 331
128 78 327 59 228 125 178 256 276 265 323 148 260 327 14 354 9 69 24 326 341 317 252 271 108 125 93 58 23 340 291 163 131 130 131 136 132 136 138 138 136 140 141 142 145 149 158 160 162 162 163 163 163 162 161 161 161 162 163 164 165 168 170 172 171 172 171 171 171 172 175 173 178 175 179 179 184 191 199 218 208 257 348 329 354 350 348 350 353 347 345 334 332 333 330 325 325
96 107 249 91 283 53 321 270 273 184 321 175 338 320 11 324 99 101 210 233 203 47 320 299 56 91 105 261 142 272 259 276 114 120 126 130 133 136 138 139 137 140 143 142 145 152 161 160 161 161 163 163 163 163 162 163 163 164 164 165 167 168 170 171 173 174 174 174 177 179 181 181 179 181 182 188 189 203 232 237 274 306 311 339 332 338 340 337 335 339 331 330 328 328 324 318 319
30 79 268 57 359 325 344 325 298 173 297 5 324 249 83 139 132 159 238 299 358 328 351 338 349 94 240 87 58 285 328 118 118 127 133 133 136 139 141 141 141 142 142 144 148 154 158 160 159 160 162 163 163 163 164 164 165 167 167 169 170 171 173 173 174 177 178 177 180 183 183 182 182 183 193 197 204 221 237 258 290 294 327 323 321 321 321 324 324 328 327 319 322 323 317 311 314
33 32 332 125 165 14 323 307 352 265 264 303 305 320 76 115 131 267 194 217 205 133 314 317 59 101 154 84 91 38 110 119 123 126 131 136 138 142 143 145 144 142 145 146 149 154 157 159 159 159 160 161 162 163 164 165 167 169 171 173 174 174 174 174 175 178 179 181 182 181 183 182 182 196 201 208 220 233 233 254 266 296 297 305 307 309 310 312 318 316 317 316 316 315 311 304 305
28 348 293 46 17 17 11 305 291 310 314 330 272 350 22 129 141 165 193 262 209 153 200 294 82 106 95 31 35 269 275 127 130 134 139 138 142 145 144 145 143 144 146 148 149 151 156 158 159 159 159 159 160 161 162 163 166 169 171 173 174 174 174 175 177 178 182 182 181 183 184 184 192 202 213 218 230 235 254 265 279 286 289 291 297 299 302 305 309 310 309 311 309 307 302 302 303
42 351 356 49 24 346 269 264 285 282 281 289 291 90 11 44 140 142 166 187 170 149 144 359 150 140 86 92 355 330 309 133 137 137 140 142 143 144 144 138 138 142 144 145 147 150 153 157 157 160 158 158 159 160 160 161 164 166 169 170 172 173 175 177 177 178 180 181 181 185 189 195 202 208 213 226 229 242 251 261 271 275 282 286 289 293 299 302 302 306 305 305 303 300 298 300 303
103 343 61 95 351 309 302 279 272 306 318 286 276 24 55 84 215 179 172 149 156 118 105 317 95 47 109 97 249 317 133 134 135 138 142 144 143 143 133 132 136 139 144 144 146 150 153 155 156 158 159 158 158 159 160 162 163 166 170 170 171 172 175 176 178 181 182 183 185 191 196 201 209 212 221 229 238 248 259 267 272 278 282 288 290 294 297 300 300 300 302 302 301 298 298 298 300
107 138 217 81 295 349 320 315 319 325 298 245 342 343 7 182 231 252 151 138 158 151 212 303 81 104 91 99 2 101 311 255 139 144 145 137 136 130 130 129 134 140 142 148 150 150 152 154 155 157 158 154 158 162 163 163 165 167 169 170 171 173 177 179 181 185 185 185 191 196 197 212 213 223 229 237 246 253 261 270 274 278 282 285 287 291 294 296 296 296 298 297 297 297 297 300 301
101 170 76 142 328 345 311 303 319 324 279 11 306 41 359 336 333 293 207 135 264 258 227 66 139 163 170 146 157 175 195 198 170 153 133 129 126 126 127 131 134 141 146 149 150 152 156 153 154 156 150 151 155 152 159 165 166 170 172 171 173 176 177 180 185 186 186 192 198 200 209 214 222 228 234 240 248 256 266 270 275 277 280 282 284 286 287 287 289 290 289 291 292 293 295 296 296
143 79 123 110 56 73 286 308 309 314 272 329 5 61 319 218 74 324 307 309 154 317 305 117 59 85 124 135 149 164 179 167 172 139 128 123 121 126 130 136 141 144 150 152 150 156 156 155 153 152 153 153 150 154 159 163 169 171 173 174 175 177 180 182 186 189 195 200 201 211 215 221 232 237 244 250 260 264 266 267 265 269 273 275 277 278 279 279 280 284 284 287 288 288 290 291 292
102 127 89 55 70 128 239 234 340 247 271 281 319 2 187 200 107 248 271 201 121 194 36 336 72 110 154 115 137 149 156 167 167 130 129 127 128 136 141 138 143 150 158 156 155 157 161 158 156 151 159 158 157 153 157 161 176 172 175 180 180 180 186 190 188 194 201 202 207 218 221 226 247 271 272 298 275 275 273 270 269 267 265 268 272 273 274 276 278 280 282 281 282 282 282 283 285
65 54 110 358 185 157 206 204 210 312 303 274 249 210 228 230 58 245 24 42 74 56 17 333 49 275 84 20 100 133 148 156 140 134 137 136 140 139 142 147 150 159 159 156 161 162 163 164 161 159 162 164 160 157 159 167 181 173 171 188 180 184 190 196 187 199 202 200 217 221 228 240 236 254 259 262 264 260 263 265 264 262 262 263 266 270 272 274 277 278 278 276 274 274 272 274 273
141 175 88 221 190 179 144 236 229 229 246 230 230 201 220 240 140 166 110 127 138 137 323 2 53 309 27 58 123 135 142 142 142 140 141 144 148 149 149 151 160 155 158 163 164 167 169 164 164 167 171 167 162 164 162 161 181 147 170 185 184 190 193 195 180 196 200 197 246 231 227 242 244 254 253 248 249 253 253 255 258 261 263 262 262 266 270 272 274 275 273 272 269 270 271 260 260
226 127 215 240 205 141 154 240 221 205 258 260 186 223 211 141 152 93 165 159 166 181 165 181 198 197 169 140 134 140 149 147 146 149 149 150 153 152 153 158 162 164 162 167 162 165 167 170 173 175 171 170 164 167 155 158 163 155 167 179 191 192 202 186 182 196 190 208 222 230 234 234 245 245 251 254 254 253 259 263 259 261 264 266 263 263 268 271 271 272 271 271 272 261 255 256 251
197 130 198 234 215 163 150 211 234 238 204 221 186 103 201 205 185 162 136 128 226 247 219 179 186 186 173 131 140 147 156 152 152 156 155 154 154 158 158 163 163 163 163 158 163 168 169 172 176 178 172 170 166 171 161 169 159 156 166 182 190 196 197 188 184 200 211 214 223 226 235 232 234 236 238 243 257 263 262 261 265 268 270 271 266 264 259 258 261 257 264 268 255 254 247 251 249
152 212 218 228 186 229 124 207 230 229 199 200 161 148 195 91 358 222 169 177 196 201 195 208 198 185 169 140 149 151 158 161 158 160 160 157 159 159 161 155 152 157 160 163 172 167 170 175 179 177 174 173 171 174 170 174 159 172 174 187 193 200 195 194 198 212 221 222 217 220 226 231 233 235 235 243 245 247 257 258 256 248 248 251 248 248 248 248 251 250 256 259 257 247 243 244 244
249 270 250 241 236 234 136 188 207 215 185 193 165 195 110 159 223 195 204 209 352 155 179 195 190 190 173 128 147 159 164 166 167 166 162 158 160 162 165 155 158 164 167 166 171 170 170 177 179 178 178 174 174 169 160 173 178 180 179 185 187 202 195 200 209 214 222 218 217 218 219 230 235 236 242 243 249 251 258 262 261 254 252 251 242 237 248 244 244 249 251 252 253 248 248 245 245
198 260 248 276 240 237 176 154 201 205 187 192 183 139 159 166 215 194 208 214 182 152 166 188 188 157 160 147 165 165 161 170 172 168 165 162 163 169 164 162 161 157 159 165 171 169 173 182 181 179 183 176 174 170 165 176 178 179 186 194 197 197 194 207 210 212 219 220 218 220 224 226 232 229 237 244 248 253 255 251 251 256 249 250 246 233 248 250 243 246 250 250 247 244 251 254 255
225 258 250 254 266 240 250 158 176 189 215 147 141 159 201 174 174 127 232 220 166 215 169 167 158 159 163 173 153 159 153 167 174 169 166 165 167 167 164 163 159 155 164 169 169 173 179 182 184 181 182 176 171 169 172 174 175 183 186 194 194 200 198 209 209 213 218 221 221 223 220 232 231 230 237 240 234 242 250 250 248 251 248 249 243 245 239 248 249 242 244 252 258 262 260 264 258
205 223 228 270 269 269 261 264 162 172 162 150 127 249 191 183 97 188 230 228 188 189 167 165 155 164 176 190 155 153 169 165 173 171 169 167 169 167 168 169 160 162 167 168 170 176 180 182 183 183 176 176 170 167 171 171 176 182 190 195 192 197 204 208 209 213 217 215 221 222 221 220 222 227 236 249 245 246 243 246 245 250 249 250 242 243 236 234 244 248 253 257 258 257 255 259 258
218 260 262 268 272 286 271 215 206 168 162 175 136 166 179 196 147 273 225 177 165 160 158 166 157 174 180 185 147 149 169 171 173 169 167 169 171 175 167 168 163 166 164 171 174 177 179 179 185 176 174 172 167 171 172 175 176 186 191 194 192 199 205 210 211 213 217 216 218 217 222 225 228 233 240 243 244 252 248 246 248 251 252 248 233 237 241 234 246 242 247 251 250 255 261 265 261
265 258 304 290 281 277 262 264 231 145 179 195 122 117 116 166 298 231 199 163 162 154 152 163 168 172 176 175 150 163 169 192 163 173 163 173 175 176 165 166 166 165 168 171 175 178 174 180 181 172 172 170 169 175 173 173 181 190 189 187 195 204 204 210 212 213 210 218 219 215 222 231 228 237 241 257 255 243 243 241 249 235 223 240 230 240 250 237 240 252 259 263 263 264 274 277 266
235 238 309 287 315 311 273 233 204 170 154 143 115 90 57 200 229 217 167 139 146 157 155 162 169 169 170 152 156 175 189 185 162 173 165 169 179 164 164 163 165 167 171 170 173 176 174 177 178 171 170 170 174 173 175 177 182 186 186 189 196 200 205 208 213 208 209 215 221 220 225 228 228 233 240 237 261 231 212 222 192 206 231 249 268 265 260 253 271 277 273 264 273 274 274 276 278
300 303 200 309 330 325 279 170 134 153 167 150 134 315 252 224 243 113 154 144 139 155 160 162 162 165 162 158 166 181 204 179 163 185 170 167 189 162 165 166 164 164 168 173 172 175 172 176 175 169 169 171 179 171 169 172 184 184 185 190 193 196 202 208 218 214 211 213 220 228 234 233 229 233 243 239 223 205 176 162 179 249 250 235 249 264 274 297 295 282 270 273 270 280 283 284 296
237 269 168 238 316 275 280 141 144 116 174 172 104 167 277 242 235 158 154 157 157 166 166 155 154 156 149 159 165 176 199 191 173 183 193 177 190 165 164 169 168 166 159 172 178 172 171 175 171 172 167 173 175 167 169 178 182 182 183 188 193 195 200 211 217 215 213 220 217 231 233 235 231 227 231 247 277 129 136 195 244 242 263 274 274 269 269 280 278 280 286 292 286 281 278 285 284
242 358 297 316 169 273 288 269 156 137 223 218 97 250 238 219 205 162 162 156 165 171 148 163 199 151 132 147 168 177 191 186 167 235 278 205 212 169 165 168 171 172 168 174 175 172 172 175 173 173 161 165 172 167 173 178 185 183 183 191 195 197 205 213 219 215 215 219 220 225 228 231 235 236 240 215 226 183 146 227 249 267 261 270 266 274 289 280 274 277 278 268 281 282 288 281 261
281 168 270 274 237 263 347 287 190 158 143 236 180 195 106 265 201 161 167 157 170 171 158 170 190 155 109 124 36 209 165 167 111 214 248 246 222 198 169 170 171 174 177 177 171 174 175 170 173 170 165 160 165 170 171 177 186 184 186 193 198 196 206 217 219 218 218 215 218 223 220 218 229 231 235 236 232 233 220 249 255 257 247 248 269 267 270 265 269 275 276 276 237 259 286 301 315
292 234 225 214 239 288 297 294 292 159 146 199 194 159 208 181 160 167 171 163 163 173 169 169 176 149 147 161 161 251 210 172 162 196 224 230 224 224 174 171 169 174 180 180 170 173 175 167 171 173 161 155 160 166 174 177 187 187 188 195 201 204 209 217 221 218 215 212 213 218 215 214 215 221 221 249 239 259 260 243 270 267 271 267 266 281 276 285 276 240 267 272 252 284 300 303 308
215 240 274 298 277 228 245 276 251 153 182 163 194 206 99 142 156 174 179 167 166 176 175 178 176 160 162 170 190 183 197 180 183 187 210 218 219 230 176 173 170 177 180 172 171 166 165 165 164 171 155 155 158 164 173 179 185 185 193 193 207 213 218 215 217 224 222 206 213 210 205 206 214 216 218 230 236 269 279 268 264 275 271 260 260 274 281 279 281 288 281 298 302 265 259 277 277
228 187 208 212 273 281 221 235 195 165 168 175 179 200 144 150 163 177 186 178 168 171 167 166 183 178 169 179 205 198 178 185 194 193 202 211 211 213 192 165 173 177 175 166 169 158 162 162 166 164 159 155 156 163 166 179 180 175 192 204 216 225 226 221 212 220 228 210 211 195 198 206 208 212 219 217 225 237 251 264 276 282 289 283 271 277 287 302 302 304 298 286 301 310 282 268 284
268 278 220 236 241 279 280 262 207 167 127 209 203 148 142 162 172 180 184 182 170 164 178 182 187 188 185 188 203 199 169 185 195 192 198 204 193 198 185 164 175 175 173 167 166 162 160 161 165 163 164 151 155 162 165 173 177 188 200 194 203 219 224 220 220 225 224 209 197 188 193 197 205 216 218 219 229 242 248 271 285 287 287 269 271 281 284 289 291 278 279 293 291 301 306 303 307
248 253 263 280 259 271 266 276 137 168 162 234 145 140 164 163 170 173 176 181 195 182 180 184 186 190 191 193 199 191 168 180 200 191 185 188 192 195 185 178 175 177 177 169 168 164 160 161 166 161 157 153 161 168 168 177 178 182 177 198 205 216 231 222 227 225 211 198 188 187 189 190 198 207 210 211 219 228 255 266 272 276 286 290 281 285 288 289 304 300 289 303 262 269 281 309 325
237 235 237 263 274 249 285 309 108 163 125 221 145 147 169 170 166 161 179 191 196 187 188 184 175 182 186 198 195 183 163 182 211 208 183 191 191 191 178 194 187 181 173 173 167 160 159 163 165 158 162 158 163 168 159 174 180 188 173 191 199 220 220 213 220 220 194 178 185 187 187 188 190 209 212 201 213 230 241 253 263 270 282 279 293 295 289 305 304 301 302 267 298 302 276 298 303
240 235 182 229 241 350 299 324 132 45 109 156 132 106 107 143 148 176 186 188 197 192 190 191 181 179 186 191 189 182 177 179 197 207 196 207 207 194 177 190 200 173 169 169 165 160 161 162 163 159 164 161 164 170 163 177 176 188 201 177 205 200 206 221 233 72 198 157 176 188 195 186 194 206 209 205 215 227 224 239 256 272 272 268 260 275 299 301 312 314 308 289 251 292 341 303 313
254 206 193 227 249 229 196 237 82 72 26 100 95 73 50 171 174 199 198 196 170 184 188 201 201 197 192 189 194 190 181 178 189 203 200 205 205 200 192 186 198 179 171 166 165 163 163 164 164 162 164 165 168 171 166 167 174 192 223 228 197 294 305 296 311 62 174 180 159 179 203 190 198 204 207 209 212 222 227 233 243 254 265 269 255 261 278 282 293 303 290 300 290 229 300 294 318
302 250 210 208 224 275 285 135 114 32 18 273 142 80 234 213 200 195 181 180 185 185 182 203 202 198 189 194 199 197 191 184 187 193 203 197 203 200 191 189 194 179 174 166 165 164 161 163 160 160 161 164 169 175 166 157 175 181 171 148 175 212 234 250 244 215 169 169 191 202 189 191 195 204 208 216 215 219 227 232 240 249 260 264 256 260 279 304 312 306 306 322 331 222 230 324 309
34 280 245 199 211 232 250 263 121 87 194 229 216 169 276 222 208 197 189 190 186 179 194 196 200 200 195 201 198 197 194 186 189 193 202 201 201 198 198 192 197 179 174 164 162 162 163 161 161 162 165 168 172 176 169 162 164 171 182 170 186 191 209 237 228 218 186 191 181 192 190 199 194 198 213 220 222 223 225 235 241 246 251 255 269 292 300 309 311 319 336 12 360 344 29 357 331
263 235 251 250 310 306 281 275 251 224 221 51 193 129 157 212 245 193 183 182 185 187 203 198 200 200 199 200 199 199 196 192 183 199 202 202 200 198 199 195 196 182 165 166 159 158 163 161 161 163 165 168 175 176 174 170 171 178 195 185 170 199 199 216 220 220 221 186 171 195 192 200 200 204 212 221 226 228 227 232 235 244 248 266 329 330 311 302 327 3 10 12 10 21 27 27 14
209 251 233 258 232 256 269 272 271 192 92 293 248 144 41 235 275 163 156 170 208 205 197 202 198 198 201 199 199 200 199 194 187 196 198 201 200 199 201 196 195 180 165 169 159 162 162 163 162 162 166 169 178 174 173 179 170 175 192 185 176 201 214 211 192 175 165 155 183 211 207 204 205 219 220 226 228 224 226 224 226 236 248 346 294 289 290 352 14 20 43 44 41 40 30 30 44
284 253 279 286 284 273 275 280 284 312 236 274 235 183 184 286 201 144 179 213 220 212 201 199 197 194 196 198 199 199 197 195 184 197 196 199 199 198 202 201 189 184 169 164 162 161 161 160 164 164 168 173 178 175 171 177 173 172 187 183 181 228 244 241 109 159 304 256 171 205 219 222 221 232 235 234 247 247 235 231 229 252 325 304 311 8 30 31 24 53 59 57 47 46 27 35 45
242 45 36 349 344 296 309 271 253 58 40 256 229 197 140 259 232 179 168 214 216 195 195 200 198 197 197 197 196 196 196 191 189 192 194 196 196 195 198 208 192 180 172 159 163 165 162 162 165 168 172 173 176 174 170 177 171 174 189 178 180 208 246 240 303 297 289 339 182 200 192 214 222 227 233 238 241 247 250 249 297 285 242 61 61 52 46 45 49 61 61 56 49 44 34 36 40
48 40 64 18 323 6 14 345 40 94 264 262 272 177 162 174 295 202 217 236 209 181 189 191 194 195 194 193 192 194 193 185 187 191 192 193 191 195 198 206 193 182 175 155 164 165 166 165 165 166 170 172 171 173 173 174 170 180 189 180 182 199 204 237 216 233 222 218 181 201 199 209 221 235 238 252 254 250 250 227 127 72 85 77 68 68 57 68 65 63 58 52 49 43 36 36 41
24 49 45 342 280 25 330 13 17 182 154 252 188 149 36 263 217 205 214 225 226 198 194 190 191 191 190 191 190 190 190 183 185 188 188 194 193 194 200 200 187 179 180 155 165 166 167 168 168 161 171 173 168 170 177 171 172 179 186 191 197 182 189 212 238 229 220 210 199 199 196 205 221 234 243 235 240 231 226 161 112 117 94 82 82 79 76 65 63 63 60 60 55 49 41 44 50
63 233 130 94 61 12 264 275 225 345 289 257 207 86 158 262 296 218 198 219 220 207 200 191 187 186 186 187 186 186 188 186 187 187 187 193 196 196 200 195 183 179 177 157 164 165 167 170 172 167 173 172 166 170 177 173 176 179 187 193 200 190 205 216 234 233 225 208 206 204 197 197 202 215 210 214 233 249 142 130 121 95 89 91 93 89 75 66 67 69 65 62 57 49 50 51 52
212 182 150 178 148 154 238 173 194 205 210 289 14 85 226 90 250 264 245 260 223 213 199 192 188 184 184 179 179 182 183 186 185 188 187 190 195 198 198 186 178 178 176 157 166 165 167 169 175 171 169 174 167 170 174 177 178 179 185 195 198 197 204 216 227 208 226 215 214 225 232 229 225 235 221 245 67 88 91 91 84 87 86 82 75 76 75 70 67 67 57 56 57 50 53 51 46
280 219 84 74 237 148 164 205 162 175 182 7 347 200 158 167 247 289 325 313 291 220 188 166 171 162 160 166 177 183 186 185 185 186 187 188 191 194 194 183 177 171 165 144 167 166 169 173 175 172 172 174 172 170 175 179 180 178 185 193 200 199 202 207 232 240 233 231 256 239 263 278 266 272 66 101 111 108 109 96 90 87 84 80 76 76 74 69 61 63 58 56 56 48 54 50 40
262 65 240 210 190 131 7 336 284 79 54 285 218 332 300 305 339 298 311 277 265 139 151 157 163 163 164 174 179 182 184 185 184 186 187 185 185 189 186 180 179 167 167 139 174 169 170 171 174 173 175 175 174 174 177 179 178 177 188 196 197 201 201 206 223 235 248 232 225 241 239 256 267 243 106 122 119 97 96 100 98 96 90 90 82 75 75 72 67 65 67 63 60 49 54 43 36
92 131 234 263 90 124 137 219 322 70 130 244 203 216 242 5 272 288 312 234 246 147 164 166 162 160 170 178 180 181 184 186 183 182 186 183 182 182 182 181 182 177 172 141 168 184 173 172 174 172 174 176 179 174 178 181 179 182 187 197 204 200 203 209 214 233 253 247 242 254 264 277 272 234 137 129 119 111 104 108 108 100 94 83 78 75 76 74 72 72 71 69 63 56 49 34 27
155 197 190 94 297 338 310 85 352 28 282 227 287 229 269 183 240 273 249 232 189 169 153 144 161 172 179 177 180 181 180 176 178 177 179 183 180 183 182 186 185 175 175 147 167 179 186 179 176 173 177 180 176 176 178 181 183 187 190 196 199 202 205 215 222 233 247 253 255 254 292 338 300 123 122 122 118 111 108 102 99 98 92 84 81 77 73 71 74 77 69 65 46 47 48 39 19
301 351 284 190 127 201 309 199 182 114 195 96 288 107 232 212 220 199 220 225 185 165 167 180 178 179 175 176 175 173 172 176 176 178 176 177 181 185 185 190 189 187 182 154 167 176 185 187 179 179 177 172 170 171 173 180 186 190 193 196 198 197 205 212 221 224 239 246 246 260 78 98 74 107 107 108 105 104 102 101 98 95 91 87 82 75 76 78 77 73 72 67 42 45 45 37 21
252 236 280 340 223 209 157 272 162 178 174 183 156 193 273 259 217 193 217 218 192 175 183 180 180 177 175 173 172 172 166 156 164 186 178 178 182 187 190 195 194 192 183 157 165 179 185 183 181 173 171 171 175 175 173 178 180 191 194 201 199 194 203 212 216 222 230 240 248 107 126 119 106 85 102 100 102 104 103 101 100 97 93 90 81 80 80 82 79 78 70 67 47 48 48 28 29
171 179 216 202 221 246 233 275 325 129 106 203 115 214 266 257 203 210 215 218 197 186 169 168 170 170 167 172 173 166 159 163 175 189 184 185 188 191 194 195 216 194 191 164 170 179 181 180 182 176 171 172 175 175 177 177 178 188 197 201 206 195 202 203 211 222 225 234 209 130 134 125 114 108 107 109 107 105 102 104 101 95 93 86 86 87 86 84 87 86 73 52 52 41 39 29 29